{"data":{"norad_id":46383,"epoch":"2026-09-13T23:10:57.432864Z","epoch_age_seconds":590322,"freshness":"STALE","line1":"1 46383U 20062BL  26256.96594251  .09241640  12468-4  44863-3 0  9995","line2":"2 46383  53.0145  88.1861 0009957 285.0606  74.9339 16.42207054334964","mean_motion":16.42207054,"eccentricity":0.0009957,"inclination_deg":53.0145,"raan_deg":88.1861,"arg_perigee_deg":285.0606,"mean_anomaly_deg":74.9339,"bstar":0.00044863,"rev_number":33496,"period_min":87.686872157352,"perigee_km":153.4280530631,"apogee_km":166.44797564669,"semimajor_km":6538.0750143549,"source":"CELESTRAK","updated_at":"2026-09-14T09:00:48.158598Z"}}